Time,TemperatureF,DewpointF,PressureIn,WindDirection,WindDirectionDegrees,WindSpeedMPH,WindSpeedGustMPH,Humidity,HourlyPrecipIn,Conditions,Clouds,dailyrainin,SoftwareType,DateUTC
2013-08-30 00:01:00,82.4,69.5,29.89,SSE,158,0.0,0.0,65,0.00,,---,0.00,VWS V13.01,2013-08-30 04:01:00,
2013-08-30 00:06:00,82.4,69.5,29.89,SSE,158,0.0,0.0,65,0.00,,---,0.00,VWS V13.01,2013-08-30 04:06:00,
2013-08-30 00:11:00,82.0,69.1,29.89,SSE,158,0.0,0.0,65,0.00,,---,0.00,VWS V13.01,2013-08-30 04:11:00,
2013-08-30 00:16:00,81.9,68.9,29.90,SSE,158,0.0,0.0,65,0.00,,---,0.00,VWS V13.01,2013-08-30 04:16:00,
2013-08-30 00:21:00,81.9,68.9,29.90,SSE,158,0.0,0.0,65,0.00,,---,0.00,VWS V13.01,2013-08-30 04:21:00,
2013-08-30 00:26:00,81.9,68.9,29.90,SSE,158,0.0,0.0,65,0.00,,---,0.00,VWS V13.01,2013-08-30 04:26:00,
2013-08-30 00:31:00,82.0,69.1,29.90,SSE,158,0.0,0.0,65,0.00,,---,0.00,VWS V13.01,2013-08-30 04:31:00,
2013-08-30 00:36:00,81.9,68.9,29.90,SSE,158,0.0,0.0,65,0.00,,---,0.00,VWS V13.01,2013-08-30 04:36:00,
2013-08-30 00:41:00,82.2,69.3,29.90,SSE,158,0.0,0.0,65,0.00,,---,0.00,VWS V13.01,2013-08-30 04:41:00,
2013-08-30 00:46:00,82.0,69.1,29.90,SSE,158,0.0,0.0,65,0.00,,---,0.00,VWS V13.01,2013-08-30 04:46:00,
2013-08-30 00:51:00,82.0,71.7,29.89,SSE,158,0.0,0.0,71,0.00,,---,0.00,VWS V13.01,2013-08-30 04:51:00,
2013-08-30 00:56:00,82.0,71.7,29.89,SSE,158,0.0,0.0,71,0.00,,---,0.00,VWS V13.01,2013-08-30 04:56:00,
2013-08-30 01:01:00,82.0,71.7,29.89,SSE,158,0.0,0.0,71,0.00,,---,0.00,VWS V13.01,2013-08-30 05:01:00,
2013-08-30 01:06:00,81.9,71.5,29.89,SSE,158,0.0,0.0,71,0.00,,---,0.00,VWS V13.01,2013-08-30 05:06:00,
2013-08-30 01:11:00,81.9,71.5,29.89,SSE,158,0.0,0.0,71,0.00,,---,0.00,VWS V13.01,2013-08-30 05:11:00,
2013-08-30 01:16:00,81.5,71.2,29.89,SSE,158,0.0,0.0,71,0.00,,---,0.00,VWS V13.01,2013-08-30 05:16:00,
2013-08-30 01:21:00,81.5,71.2,29.89,SSE,158,0.0,0.0,71,0.00,,---,0.00,VWS V13.01,2013-08-30 05:21:00,
2013-08-30 01:26:00,81.3,71.0,29.89,SSE,158,0.0,0.0,71,0.00,,---,0.00,VWS V13.01,2013-08-30 05:26:00,
2013-08-30 01:31:00,81.3,71.0,29.88,SSE,158,0.0,0.0,71,0.00,,---,0.00,VWS V13.01,2013-08-30 05:31:00,
2013-08-30 01:36:00,81.3,71.0,29.88,SSE,158,0.0,0.0,71,0.00,,---,0.00,VWS V13.01,2013-08-30 05:36:00,
2013-08-30 01:41:00,81.0,70.7,29.88,SSE,158,0.0,0.0,71,0.00,,---,0.00,VWS V13.01,2013-08-30 05:41:00,
2013-08-30 01:46:00,81.0,70.7,29.88,SSE,158,0.0,0.0,71,0.00,,---,0.00,VWS V13.01,2013-08-30 05:46:00,
2013-08-30 01:51:00,81.0,70.7,29.88,SSE,158,0.0,0.0,71,0.00,,---,0.00,VWS V13.01,2013-08-30 05:51:00,
2013-08-30 01:56:00,81.0,70.7,29.88,SSE,158,0.0,0.0,71,0.00,,---,0.00,VWS V13.01,2013-08-30 05:56:00,
2013-08-30 02:01:00,80.8,70.5,29.88,SSE,158,0.0,0.0,71,0.00,,---,0.00,VWS V13.01,2013-08-30 06:01:00,
2013-08-30 02:06:00,80.6,70.3,29.88,SSE,158,0.0,0.0,71,0.00,,---,0.00,VWS V13.01,2013-08-30 06:06:00,
2013-08-30 02:11:00,80.2,70.4,29.88,SSE,158,0.0,0.0,72,0.00,,---,0.00,VWS V13.01,2013-08-30 06:11:00,
2013-08-30 02:16:00,80.2,70.4,29.87,SSE,158,0.0,0.0,72,0.00,,---,0.00,VWS V13.01,2013-08-30 06:16:00,
2013-08-30 02:21:00,80.2,70.4,29.87,SSE,158,0.0,0.0,72,0.00,,---,0.00,VWS V13.01,2013-08-30 06:21:00,
2013-08-30 02:26:00,80.2,70.4,29.87,SSE,158,0.0,0.0,72,0.00,,---,0.00,VWS V13.01,2013-08-30 06:26:00,
2013-08-30 02:31:00,80.1,70.6,29.87,SSE,158,0.0,0.0,73,0.00,,---,0.00,VWS V13.01,2013-08-30 06:31:00,
2013-08-30 02:36:00,79.9,70.5,29.87,SSE,158,0.0,0.0,73,0.00,,---,0.00,VWS V13.01,2013-08-30 06:36:00,
2013-08-30 02:41:00,79.9,70.5,29.87,SSE,158,0.0,0.0,73,0.00,,---,0.00,VWS V13.01,2013-08-30 06:41:00,
2013-08-30 02:46:00,79.9,70.5,29.87,SSE,158,0.0,0.0,73,0.00,,---,0.00,VWS V13.01,2013-08-30 06:46:00,
2013-08-30 02:51:00,79.7,70.3,29.87,SSE,158,0.0,0.0,73,0.00,,---,0.00,VWS V13.01,2013-08-30 06:51:00,
2013-08-30 02:56:00,79.5,70.1,29.87,SSE,158,0.0,0.0,73,0.00,,---,0.00,VWS V13.01,2013-08-30 06:56:00,
2013-08-30 03:01:00,79.5,70.5,29.86,SSE,158,0.0,0.0,74,0.00,,---,0.00,VWS V13.01,2013-08-30 07:01:00,
2013-08-30 03:06:00,79.5,70.9,29.86,SSE,158,0.0,0.0,75,0.00,,---,0.00,VWS V13.01,2013-08-30 07:06:00,
2013-08-30 03:11:00,79.3,70.7,29.86,SSE,158,0.0,0.0,75,0.00,,---,0.00,VWS V13.01,2013-08-30 07:11:00,
2013-08-30 03:16:00,79.2,70.6,29.86,SSE,158,0.0,0.0,75,0.00,,---,0.00,VWS V13.01,2013-08-30 07:16:00,
2013-08-30 03:21:00,79.2,70.6,29.86,SSE,158,0.0,0.0,75,0.00,,---,0.00,VWS V13.01,2013-08-30 07:21:00,
2013-08-30 03:26:00,79.0,70.4,29.85,SSE,158,0.0,0.0,75,0.00,,---,0.00,VWS V13.01,2013-08-30 07:26:00,
2013-08-30 03:31:00,79.2,70.6,29.86,SSE,158,0.0,0.0,75,0.00,,---,0.00,VWS V13.01,2013-08-30 07:31:00,
2013-08-30 03:36:00,79.0,70.4,29.86,SSE,158,0.0,0.0,75,0.00,,---,0.00,VWS V13.01,2013-08-30 07:36:00,
2013-08-30 03:41:00,78.8,70.2,29.86,SSE,158,0.0,0.0,75,0.00,,---,0.00,VWS V13.01,2013-08-30 07:41:00,
2013-08-30 03:46:00,78.6,70.0,29.86,SSE,158,0.0,0.0,75,0.00,,---,0.00,VWS V13.01,2013-08-30 07:46:00,
2013-08-30 03:51:00,78.8,70.2,29.86,SSE,158,0.0,0.0,75,0.00,,---,0.00,VWS V13.01,2013-08-30 07:51:00,
2013-08-30 03:56:00,78.6,70.0,29.86,SSE,158,0.0,0.0,75,0.00,,---,0.00,VWS V13.01,2013-08-30 07:56:00,
2013-08-30 04:01:00,78.4,70.2,29.85,SSE,158,0.0,0.0,76,0.00,,---,0.00,VWS V13.01,2013-08-30 08:01:00,
2013-08-30 04:06:00,78.4,70.2,29.85,SSE,158,0.0,0.0,76,0.00,,---,0.00,VWS V13.01,2013-08-30 08:06:00,
2013-08-30 04:11:00,78.4,70.2,29.85,SSE,158,0.0,0.0,76,0.00,,---,0.00,VWS V13.01,2013-08-30 08:11:00,
2013-08-30 04:16:00,78.3,70.1,29.86,SSE,158,0.0,0.0,76,0.00,,---,0.00,VWS V13.01,2013-08-30 08:16:00,
2013-08-30 04:21:00,78.3,70.1,29.85,SSE,158,0.0,0.0,76,0.00,,---,0.00,VWS V13.01,2013-08-30 08:21:00,
2013-08-30 04:26:00,78.1,69.9,29.85,SSE,158,0.0,0.0,76,0.00,,---,0.00,VWS V13.01,2013-08-30 08:26:00,
2013-08-30 04:31:00,77.9,69.7,29.85,SSE,158,0.0,0.0,76,0.00,,---,0.00,VWS V13.01,2013-08-30 08:31:00,
2013-08-30 04:36:00,77.9,70.1,29.85,SSE,158,0.0,0.0,77,0.00,,---,0.00,VWS V13.01,2013-08-30 08:36:00,
2013-08-30 04:41:00,77.9,70.1,29.85,SSE,158,0.0,0.0,77,0.00,,---,0.00,VWS V13.01,2013-08-30 08:41:00,
2013-08-30 04:46:00,77.9,70.1,29.85,SSE,158,0.0,0.0,77,0.00,,---,0.00,VWS V13.01,2013-08-30 08:46:00,
2013-08-30 04:51:00,77.9,70.1,29.85,SSE,158,0.0,0.0,77,0.00,,---,0.00,VWS V13.01,2013-08-30 08:51:00,
2013-08-30 04:56:00,77.9,70.1,29.85,SSE,158,0.0,0.0,77,0.00,,---,0.00,VWS V13.01,2013-08-30 08:56:00,
2013-08-30 05:01:00,77.7,70.3,29.85,SSE,158,0.0,0.0,78,0.00,,---,0.00,VWS V13.01,2013-08-30 09:01:00,
2013-08-30 05:06:00,77.7,70.3,29.85,SSE,158,0.0,0.0,78,0.00,,---,0.00,VWS V13.01,2013-08-30 09:06:00,
2013-08-30 05:11:00,77.7,70.3,29.85,SSE,158,0.0,0.0,78,0.00,,---,0.00,VWS V13.01,2013-08-30 09:11:00,
2013-08-30 05:16:00,77.7,70.3,29.85,SSE,158,0.0,0.0,78,0.00,,---,0.00,VWS V13.01,2013-08-30 09:16:00,
2013-08-30 05:21:00,77.7,70.3,29.85,SSE,158,0.0,0.0,78,0.00,,---,0.00,VWS V13.01,2013-08-30 09:21:00,
2013-08-30 05:26:00,77.4,70.0,29.85,SSE,158,0.0,0.0,78,0.00,,---,0.00,VWS V13.01,2013-08-30 09:26:00,
2013-08-30 05:31:00,77.4,70.0,29.85,SSE,158,0.0,0.0,78,0.00,,---,0.00,VWS V13.01,2013-08-30 09:31:00,
2013-08-30 05:36:00,77.4,70.0,29.85,SSE,158,0.0,0.0,78,0.00,,---,0.00,VWS V13.01,2013-08-30 09:36:00,
2013-08-30 05:41:00,77.2,69.8,29.84,SSE,158,0.0,0.0,78,0.00,,---,0.00,VWS V13.01,2013-08-30 09:41:00,
2013-08-30 05:46:00,77.2,70.2,29.84,SSE,158,0.0,0.0,79,0.00,,---,0.00,VWS V13.01,2013-08-30 09:46:00,
2013-08-30 05:51:00,77.2,70.2,29.84,SSE,158,0.0,0.0,79,0.00,,---,0.00,VWS V13.01,2013-08-30 09:51:00,
2013-08-30 05:56:00,77.2,70.2,29.85,SSE,158,0.0,0.0,79,0.00,,---,0.00,VWS V13.01,2013-08-30 09:56:00,
2013-08-30 06:01:00,77.2,70.2,29.84,SSE,158,0.0,0.0,79,0.00,,---,0.00,VWS V13.01,2013-08-30 10:01:00,
2013-08-30 06:06:00,77.2,70.2,29.84,SSE,158,0.0,0.0,79,0.00,,---,0.00,VWS V13.01,2013-08-30 10:06:00,
2013-08-30 06:11:00,77.0,70.0,29.85,SSE,158,0.0,0.0,79,0.00,,---,0.00,VWS V13.01,2013-08-30 10:11:00,
2013-08-30 06:16:00,76.8,69.8,29.85,SSE,158,0.0,0.0,79,0.00,,---,0.00,VWS V13.01,2013-08-30 10:16:00,
2013-08-30 06:21:00,77.0,70.0,29.84,SSE,158,0.0,0.0,79,0.00,,---,0.00,VWS V13.01,2013-08-30 10:21:00,
2013-08-30 06:26:00,76.8,69.8,29.85,SSE,158,0.0,0.0,79,0.00,,---,0.00,VWS V13.01,2013-08-30 10:26:00,
2013-08-30 06:31:00,76.6,69.6,29.85,SSE,158,0.0,0.0,79,0.00,,---,0.00,VWS V13.01,2013-08-30 10:31:00,
2013-08-30 06:36:00,76.6,69.6,29.85,SSE,158,0.0,0.0,79,0.00,,---,0.00,VWS V13.01,2013-08-30 10:36:00,
2013-08-30 06:41:00,76.6,69.6,29.86,SSE,158,0.0,0.0,79,0.00,,---,0.00,VWS V13.01,2013-08-30 10:41:00,
2013-08-30 06:46:00,76.6,69.6,29.86,SSE,158,0.0,0.0,79,0.00,,---,0.00,VWS V13.01,2013-08-30 10:46:00,
2013-08-30 06:51:00,76.6,69.6,29.86,SSE,158,0.0,0.0,79,0.00,,---,0.00,VWS V13.01,2013-08-30 10:51:00,
2013-08-30 06:56:00,76.6,70.0,29.86,SSE,158,0.0,0.0,80,0.00,,---,0.00,VWS V13.01,2013-08-30 10:56:00,
2013-08-30 07:01:00,76.6,70.0,29.86,SSE,158,0.0,0.0,80,0.00,,---,0.00,VWS V13.01,2013-08-30 11:01:00,
2013-08-30 07:06:00,76.6,70.0,29.86,SSE,158,0.0,0.0,80,0.00,,---,0.00,VWS V13.01,2013-08-30 11:06:00,
2013-08-30 07:11:00,76.6,70.0,29.86,SSE,158,0.0,0.0,80,0.00,,---,0.00,VWS V13.01,2013-08-30 11:11:00,
2013-08-30 07:16:00,76.8,70.2,29.87,SSE,158,0.0,0.0,80,0.00,,---,0.00,VWS V13.01,2013-08-30 11:16:00,
2013-08-30 07:21:00,77.2,70.9,29.87,SSE,158,0.0,0.0,81,0.00,,---,0.00,VWS V13.01,2013-08-30 11:21:00,
2013-08-30 07:26:00,78.1,71.8,29.87,SSE,158,0.0,0.0,81,0.00,,---,0.00,VWS V13.01,2013-08-30 11:26:00,
2013-08-30 07:31:00,79.0,73.0,29.87,SSE,158,0.0,0.0,82,0.00,,---,0.00,VWS V13.01,2013-08-30 11:31:00,
2013-08-30 07:36:00,79.5,73.6,29.87,SSE,158,0.0,0.0,82,0.00,,---,0.00,VWS V13.01,2013-08-30 11:36:00,
2013-08-30 07:41:00,79.7,73.4,29.87,SSE,158,0.0,0.0,81,0.00,,---,0.00,VWS V13.01,2013-08-30 11:41:00,
2013-08-30 07:46:00,79.7,72.6,29.87,SSE,158,0.0,0.0,79,0.00,,---,0.00,VWS V13.01,2013-08-30 11:46:00,
2013-08-30 07:51:00,79.9,72.4,29.88,SSE,158,0.0,0.0,78,0.00,,---,0.00,VWS V13.01,2013-08-30 11:51:00,
2013-08-30 07:56:00,80.1,72.6,29.88,SSE,158,0.0,0.0,78,0.00,,---,0.00,VWS V13.01,2013-08-30 11:56:00,
2013-08-30 08:01:00,80.2,72.4,29.88,SSE,158,0.0,0.0,77,0.00,,---,0.00,VWS V13.01,2013-08-30 12:01:00,
2013-08-30 08:06:00,80.6,72.7,29.88,SSE,158,0.0,0.0,77,0.00,,---,0.00,VWS V13.01,2013-08-30 12:06:00,
2013-08-30 08:11:00,81.0,73.1,29.88,SSE,158,0.0,0.0,77,0.00,,---,0.00,VWS V13.01,2013-08-30 12:11:00,
2013-08-30 08:16:00,81.5,73.6,29.88,SSE,158,0.0,0.0,77,0.00,,---,0.00,VWS V13.01,2013-08-30 12:16:00,
2013-08-30 08:21:00,82.0,74.1,29.88,SSE,158,0.0,0.0,77,0.00,,---,0.00,VWS V13.01,2013-08-30 12:21:00,
2013-08-30 08:26:00,82.8,74.8,29.88,SSE,158,0.0,0.0,77,0.00,,---,0.00,VWS V13.01,2013-08-30 12:26:00,
2013-08-30 08:31:00,83.7,75.3,29.89,SSE,158,0.0,0.0,76,0.00,,---,0.00,VWS V13.01,2013-08-30 12:31:00,
2013-08-30 08:36:00,83.8,75.1,29.89,SSE,158,0.0,0.0,75,0.00,,---,0.00,VWS V13.01,2013-08-30 12:36:00,
2013-08-30 08:41:00,84.6,75.0,29.89,SSE,158,0.0,0.0,73,0.00,,---,0.00,VWS V13.01,2013-08-30 12:41:00,
2013-08-30 08:46:00,84.9,74.1,29.89,SSE,158,0.0,0.0,70,0.00,,---,0.00,VWS V13.01,2013-08-30 12:46:00,
2013-08-30 08:51:00,85.5,73.7,29.89,SSE,158,0.0,0.0,68,0.00,,---,0.00,VWS V13.01,2013-08-30 12:51:00,
2013-08-30 08:56:00,85.6,73.4,29.89,SSE,158,0.0,0.0,67,0.00,,---,0.00,VWS V13.01,2013-08-30 12:56:00,
2013-08-30 09:01:00,86.2,73.5,29.89,SSE,158,0.0,0.0,66,0.00,,---,0.00,VWS V13.01,2013-08-30 13:01:00,
2013-08-30 09:06:00,86.4,73.2,29.89,SSE,158,0.0,0.0,65,0.00,,---,0.00,VWS V13.01,2013-08-30 13:06:00,
2013-08-30 09:11:00,86.7,73.1,29.89,SSE,158,0.0,0.0,64,0.00,,---,0.00,VWS V13.01,2013-08-30 13:11:00,
2013-08-30 09:16:00,86.9,72.3,29.89,South,180,0.0,0.0,62,0.00,,---,0.00,VWS V13.01,2013-08-30 13:16:00,
2013-08-30 09:21:00,87.3,72.2,29.89,South,180,0.0,0.0,61,0.00,,---,0.00,VWS V13.01,2013-08-30 13:21:00,
2013-08-30 09:26:00,87.4,71.9,29.89,South,180,0.0,0.0,60,0.00,,---,0.00,VWS V13.01,2013-08-30 13:26:00,
2013-08-30 09:31:00,87.6,71.0,29.89,West,270,0.0,0.0,58,0.00,,---,0.00,VWS V13.01,2013-08-30 13:31:00,
2013-08-30 09:36:00,87.8,70.7,29.89,West,270,0.0,0.0,57,0.00,,---,0.00,VWS V13.01,2013-08-30 13:36:00,
2013-08-30 09:41:00,88.0,69.8,29.90,West,270,0.0,0.0,55,0.00,,---,0.00,VWS V13.01,2013-08-30 13:41:00,
2013-08-30 09:46:00,88.3,70.1,29.90,West,270,0.0,0.0,55,0.00,,---,0.00,VWS V13.01,2013-08-30 13:46:00,
2013-08-30 09:51:00,88.5,68.7,29.90,West,270,0.0,0.0,52,0.00,,---,0.00,VWS V13.01,2013-08-30 13:51:00,
2013-08-30 09:56:00,88.7,67.1,29.90,West,270,0.0,0.0,49,0.00,,---,0.00,VWS V13.01,2013-08-30 13:56:00,
2013-08-30 10:01:00,89.1,67.4,29.90,SE,135,0.0,0.0,49,0.00,,---,0.00,VWS V13.01,2013-08-30 14:01:00,
2013-08-30 10:06:00,89.1,66.8,29.91,SE,135,0.0,0.0,48,0.00,,---,0.00,VWS V13.01,2013-08-30 14:06:00,
2013-08-30 10:11:00,89.4,66.6,29.91,SE,135,0.0,0.0,47,0.00,,---,0.00,VWS V13.01,2013-08-30 14:11:00,
2013-08-30 10:16:00,90.0,67.0,29.92,ESE,112,0.0,0.0,47,0.00,,---,0.00,VWS V13.01,2013-08-30 14:16:00,
2013-08-30 10:21:00,90.0,66.4,29.91,ESE,112,0.0,0.0,46,0.00,,---,0.00,VWS V13.01,2013-08-30 14:21:00,
2013-08-30 10:26:00,90.3,66.8,29.91,ESE,112,0.0,0.0,46,0.00,,---,0.00,VWS V13.01,2013-08-30 14:26:00,
2013-08-30 10:31:00,90.5,65.6,29.92,ESE,112,0.0,0.0,44,0.00,,---,0.00,VWS V13.01,2013-08-30 14:31:00,
2013-08-30 10:36:00,90.9,65.9,29.92,SW,225,0.0,0.0,44,0.00,,---,0.00,VWS V13.01,2013-08-30 14:36:00,
2013-08-30 10:41:00,91.0,66.1,29.92,SSW,202,0.0,1.3,44,0.00,,---,0.00,VWS V13.01,2013-08-30 14:41:00,
2013-08-30 10:46:00,91.0,65.4,29.92,SSE,158,0.0,5.8,43,0.00,,---,0.00,VWS V13.01,2013-08-30 14:46:00,
2013-08-30 10:51:00,91.2,64.9,29.92,SE,135,0.0,5.8,42,0.00,,---,0.00,VWS V13.01,2013-08-30 14:51:00,
2013-08-30 10:56:00,91.8,65.4,29.92,SSE,158,0.0,5.8,42,0.00,,---,0.00,VWS V13.01,2013-08-30 14:56:00,
2013-08-30 11:01:00,91.9,65.6,29.92,SE,135,0.0,0.0,42,0.00,,---,0.00,VWS V13.01,2013-08-30 15:01:00,
2013-08-30 11:06:00,92.3,64.5,29.92,ESE,112,1.1,3.4,40,0.00,,---,0.00,VWS V13.01,2013-08-30 15:06:00,
2013-08-30 11:11:00,92.1,63.6,29.91,ESE,112,0.0,3.4,39,0.00,,---,0.00,VWS V13.01,2013-08-30 15:11:00,
2013-08-30 11:16:00,92.1,63.6,29.91,South,180,2.0,3.4,39,0.00,,---,0.00,VWS V13.01,2013-08-30 15:16:00,
2013-08-30 11:21:00,92.3,64.5,29.92,SSE,158,0.0,3.4,40,0.00,,---,0.00,VWS V13.01,2013-08-30 15:21:00,
2013-08-30 11:26:00,92.7,64.8,29.91,South,180,0.0,3.4,40,0.00,,---,0.00,VWS V13.01,2013-08-30 15:26:00,
2013-08-30 11:31:00,93.4,65.5,29.91,South,180,0.0,3.4,40,0.00,,---,0.00,VWS V13.01,2013-08-30 15:31:00,
2013-08-30 11:36:00,93.4,64.0,29.91,SSE,158,0.0,3.4,38,0.00,,---,0.00,VWS V13.01,2013-08-30 15:36:00,
2013-08-30 11:41:00,93.2,62.3,29.91,East,90,0.0,3.4,36,0.00,,---,0.00,VWS V13.01,2013-08-30 15:41:00,
2013-08-30 11:46:00,92.8,62.8,29.91,WSW,248,1.6,3.4,37,0.00,,---,0.00,VWS V13.01,2013-08-30 15:46:00,
2013-08-30 11:50:00,93.4,64.0,29.90,South,180,0.0,3.4,38,0.00,,---,0.00,VWS V13.01,2013-08-30 15:50:00,
2013-08-30 11:55:00,93.9,63.7,29.90,ESE,112,5.1,5.1,37,0.00,,---,0.00,VWS V13.01,2013-08-30 15:55:00,
2013-08-30 12:00:00,93.7,62.8,29.90,ENE,68,2.2,3.8,36,0.00,,---,0.00,VWS V13.01,2013-08-30 16:00:00,
2013-08-30 12:05:00,93.6,62.6,29.90,ESE,112,4.9,5.6,36,0.00,,---,0.00,VWS V13.01,2013-08-30 16:05:00,
2013-08-30 12:10:00,93.4,65.5,29.90,SSE,158,0.0,5.6,40,0.00,,---,0.00,VWS V13.01,2013-08-30 16:10:00,
2013-08-30 12:15:00,94.1,66.1,29.90,SE,135,3.8,6.5,40,0.00,,---,0.00,VWS V13.01,2013-08-30 16:15:00,
2013-08-30 12:20:00,95.2,67.1,29.90,SSE,158,4.5,6.5,40,0.00,,---,0.00,VWS V13.01,2013-08-30 16:20:00,
2013-08-30 12:25:00,95.4,67.2,29.89,SE,135,2.9,7.6,40,0.00,,---,0.00,VWS V13.01,2013-08-30 16:25:00,
2013-08-30 12:30:00,95.0,66.9,29.89,SE,135,0.0,7.6,40,0.00,,---,0.00,VWS V13.01,2013-08-30 16:30:00,
2013-08-30 12:35:00,94.5,65.7,29.89,SE,135,0.0,7.6,39,0.00,,---,0.00,VWS V13.01,2013-08-30 16:35:00,
2013-08-30 12:40:00,94.1,65.4,29.89,South,180,0.0,7.6,39,0.00,,---,0.00,VWS V13.01,2013-08-30 16:40:00,
2013-08-30 12:45:00,94.3,66.3,29.89,SSE,158,0.0,7.6,40,0.00,,---,0.00,VWS V13.01,2013-08-30 16:45:00,
2013-08-30 12:50:00,94.5,65.7,29.89,SSW,202,0.0,7.6,39,0.00,,---,0.00,VWS V13.01,2013-08-30 16:50:00,
2013-08-30 12:55:00,94.6,65.9,29.89,ESE,112,2.9,7.6,39,0.00,,---,0.00,VWS V13.01,2013-08-30 16:55:00,
2013-08-30 13:00:00,95.0,66.2,29.89,SSE,158,0.0,0.0,39,0.00,,---,0.00,VWS V13.01,2013-08-30 17:00:00,
2013-08-30 13:05:00,95.2,66.3,29.89,SE,135,0.0,4.9,39,0.00,,---,0.00,VWS V13.01,2013-08-30 17:05:00,
2013-08-30 13:10:00,95.2,65.6,29.88,WNW,292,0.0,4.9,38,0.00,,---,0.00,VWS V13.01,2013-08-30 17:10:00,
2013-08-30 13:15:00,95.4,65.8,29.88,ESE,112,3.8,5.8,38,0.00,,---,0.00,VWS V13.01,2013-08-30 17:15:00,
2013-08-30 13:20:00,94.6,65.1,29.88,ENE,68,0.0,10.1,38,0.00,,---,0.00,VWS V13.01,2013-08-30 17:20:00,
2013-08-30 13:25:00,93.9,65.9,29.88,ENE,68,0.0,10.1,40,0.00,,---,0.00,VWS V13.01,2013-08-30 17:25:00,
2013-08-30 13:30:00,93.6,67.0,29.88,SSE,158,4.3,10.1,42,0.00,,---,0.00,VWS V13.01,2013-08-30 17:30:00,
2013-08-30 13:35:00,94.1,66.8,29.88,East,90,1.8,10.1,41,0.00,,---,0.00,VWS V13.01,2013-08-30 17:35:00,
2013-08-30 13:40:00,94.5,67.1,29.88,SE,135,6.3,11.2,41,0.00,,---,0.00,VWS V13.01,2013-08-30 17:40:00,
2013-08-30 13:45:00,94.6,67.3,29.88,East,90,5.6,11.2,41,0.00,,---,0.00,VWS V13.01,2013-08-30 17:45:00,
2013-08-30 13:50:00,94.1,66.8,29.88,ESE,112,0.0,11.2,41,0.00,,---,0.00,VWS V13.01,2013-08-30 17:50:00,
2013-08-30 13:55:00,93.7,67.2,29.88,SE,135,2.9,11.2,42,0.00,,---,0.00,VWS V13.01,2013-08-30 17:55:00,
2013-08-30 14:00:00,93.6,67.0,29.88,SE,135,6.3,6.3,42,0.00,,---,0.00,VWS V13.01,2013-08-30 18:00:00,
2013-08-30 14:06:00,93.6,67.0,29.88,ESE,112,4.3,7.4,42,0.00,,---,0.00,VWS V13.01,2013-08-30 18:06:00,
2013-08-30 14:11:00,93.6,67.0,29.87,ESE,112,5.6,9.0,42,0.00,,---,0.00,VWS V13.01,2013-08-30 18:11:00,
2013-08-30 14:16:00,94.1,66.8,29.87,SE,135,0.0,9.2,41,0.00,,---,0.00,VWS V13.01,2013-08-30 18:16:00,
2013-08-30 14:21:00,94.1,66.1,29.87,ESE,112,1.8,9.2,40,0.00,,---,0.00,VWS V13.01,2013-08-30 18:21:00,
2013-08-30 14:26:00,94.1,66.1,29.87,SSE,158,3.6,9.2,40,0.00,,---,0.00,VWS V13.01,2013-08-30 18:26:00,
2013-08-30 14:31:00,94.1,66.1,29.86,SE,135,4.5,9.2,40,0.00,,---,0.00,VWS V13.01,2013-08-30 18:31:00,
2013-08-30 14:36:00,93.9,65.9,29.86,SE,135,2.7,9.2,40,0.00,,---,0.00,VWS V13.01,2013-08-30 18:36:00,
2013-08-30 14:41:00,93.9,66.7,29.86,East,90,0.0,9.2,41,0.00,,---,0.00,VWS V13.01,2013-08-30 18:41:00,
2013-08-30 14:46:00,93.7,65.8,29.86,SE,135,2.2,9.2,40,0.00,,---,0.00,VWS V13.01,2013-08-30 18:46:00,
2013-08-30 14:51:00,93.7,66.5,29.86,SE,135,0.0,9.2,41,0.00,,---,0.00,VWS V13.01,2013-08-30 18:51:00,
2013-08-30 14:56:00,93.9,66.7,29.85,SE,135,2.2,9.2,41,0.00,,---,0.00,VWS V13.01,2013-08-30 18:56:00,
2013-08-30 15:01:00,93.6,66.3,29.85,SSE,158,3.8,4.5,41,0.00,,---,0.00,VWS V13.01,2013-08-30 19:01:00,
2013-08-30 15:06:00,93.2,66.0,29.85,SE,135,0.0,8.7,41,0.00,,---,0.00,VWS V13.01,2013-08-30 19:06:00,
2013-08-30 15:11:00,92.8,66.4,29.84,South,180,6.7,8.7,42,0.00,,---,0.00,VWS V13.01,2013-08-30 19:11:00,
2013-08-30 15:16:00,93.0,66.6,29.84,ESE,112,2.5,8.7,42,0.00,,---,0.00,VWS V13.01,2013-08-30 19:16:00,
2013-08-30 15:21:00,93.0,66.6,29.84,ESE,112,3.4,8.7,42,0.00,,---,0.00,VWS V13.01,2013-08-30 19:21:00,
2013-08-30 15:26:00,92.8,66.4,29.84,East,90,3.8,8.7,42,0.00,,---,0.00,VWS V13.01,2013-08-30 19:26:00,
2013-08-30 15:31:00,92.5,66.1,29.84,ESE,112,0.0,8.7,42,0.00,,---,0.00,VWS V13.01,2013-08-30 19:31:00,
2013-08-30 15:36:00,92.3,65.9,29.84,ESE,112,1.1,8.7,42,0.00,,---,0.00,VWS V13.01,2013-08-30 19:36:00,
2013-08-30 15:41:00,92.1,65.8,29.84,SE,135,4.5,8.7,42,0.00,,---,0.00,VWS V13.01,2013-08-30 19:41:00,
2013-08-30 15:46:00,91.8,65.4,29.83,South,180,5.6,8.7,42,0.00,,---,0.00,VWS V13.01,2013-08-30 19:46:00,
2013-08-30 15:51:00,91.6,65.3,29.83,SE,135,5.1,8.7,42,0.00,,---,0.00,VWS V13.01,2013-08-30 19:51:00,
2013-08-30 15:56:00,91.2,64.9,29.83,SSE,158,3.8,9.0,42,0.00,,---,0.00,VWS V13.01,2013-08-30 19:56:00,
2013-08-30 16:01:00,91.0,64.8,29.83,South,180,0.2,4.0,42,0.00,,---,0.00,VWS V13.01,2013-08-30 20:01:00,
2013-08-30 16:06:00,91.0,64.8,29.83,SE,135,7.4,9.6,42,0.00,,---,0.00,VWS V13.01,2013-08-30 20:06:00,
2013-08-30 16:11:00,90.9,64.6,29.83,SSE,158,5.8,9.6,42,0.00,,---,0.00,VWS V13.01,2013-08-30 20:11:00,
2013-08-30 16:16:00,90.7,64.5,29.83,SSE,158,4.9,9.6,42,0.00,,---,0.00,VWS V13.01,2013-08-30 20:16:00,
2013-08-30 16:21:00,90.5,65.6,29.83,SE,135,6.7,9.6,44,0.00,,---,0.00,VWS V13.01,2013-08-30 20:21:00,
2013-08-30 16:26:00,90.9,65.9,29.83,ESE,112,2.5,9.6,44,0.00,,---,0.00,VWS V13.01,2013-08-30 20:26:00,
2013-08-30 16:31:00,91.0,66.8,29.83,SSE,158,2.7,9.6,45,0.00,,---,0.00,VWS V13.01,2013-08-30 20:31:00,
2013-08-30 16:36:00,90.9,66.6,29.83,SE,135,4.9,9.6,45,0.00,,---,0.00,VWS V13.01,2013-08-30 20:36:00,
2013-08-30 16:41:00,91.0,66.8,29.83,SE,135,2.7,9.6,45,0.00,,---,0.00,VWS V13.01,2013-08-30 20:41:00,
2013-08-30 16:46:00,91.0,66.8,29.82,ESE,112,2.7,9.6,45,0.00,,---,0.00,VWS V13.01,2013-08-30 20:46:00,
2013-08-30 16:51:00,90.9,66.6,29.82,SSE,158,3.1,9.6,45,0.00,,---,0.00,VWS V13.01,2013-08-30 20:51:00,
2013-08-30 16:56:00,90.9,66.6,29.82,SE,135,2.9,9.6,45,0.00,,---,0.00,VWS V13.01,2013-08-30 20:56:00,
2013-08-30 17:01:00,90.9,66.6,29.82,SSE,158,0.0,3.4,45,0.00,,---,0.00,VWS V13.01,2013-08-30 21:01:00,
2013-08-30 17:06:00,90.5,66.3,29.82,South,180,0.0,6.9,45,0.00,,---,0.00,VWS V13.01,2013-08-30 21:06:00,
2013-08-30 17:11:00,90.5,66.3,29.82,SSE,158,0.0,6.9,45,0.00,,---,0.00,VWS V13.01,2013-08-30 21:11:00,
2013-08-30 17:16:00,90.3,66.1,29.82,South,180,3.6,6.9,45,0.00,,---,0.00,VWS V13.01,2013-08-30 21:16:00,
2013-08-30 17:21:00,90.0,65.8,29.82,South,180,0.0,6.9,45,0.00,,---,0.00,VWS V13.01,2013-08-30 21:21:00,
2013-08-30 17:26:00,89.6,65.5,29.82,SE,135,1.3,6.9,45,0.00,,---,0.00,VWS V13.01,2013-08-30 21:26:00,
2013-08-30 17:31:00,89.4,65.3,29.82,SW,225,0.0,6.9,45,0.00,,---,0.00,VWS V13.01,2013-08-30 21:31:00,
2013-08-30 17:36:00,89.4,65.3,29.83,SSE,158,1.8,6.9,45,0.00,,---,0.00,VWS V13.01,2013-08-30 21:36:00,
2013-08-30 17:41:00,89.2,65.1,29.82,SSE,158,2.7,6.9,45,0.00,,---,0.00,VWS V13.01,2013-08-30 21:41:00,
2013-08-30 17:46:00,89.2,65.1,29.82,South,180,0.0,6.9,45,0.00,,---,0.00,VWS V13.01,2013-08-30 21:46:00,
2013-08-30 17:51:00,89.1,65.0,29.83,South,180,0.0,6.9,45,0.00,,---,0.00,VWS V13.01,2013-08-30 21:51:00,
2013-08-30 17:56:00,89.1,65.0,29.83,SE,135,0.0,6.9,45,0.00,,---,0.00,VWS V13.01,2013-08-30 21:56:00,
2013-08-30 18:01:00,89.1,65.0,29.82,SSE,158,0.0,0.0,45,0.00,,---,0.00,VWS V13.01,2013-08-30 22:01:00,
2013-08-30 18:06:00,88.9,64.8,29.82,South,180,0.0,4.5,45,0.00,,---,0.00,VWS V13.01,2013-08-30 22:06:00,
2013-08-30 18:11:00,88.7,65.3,29.82,SSW,202,0.0,4.5,46,0.00,,---,0.00,VWS V13.01,2013-08-30 22:11:00,
2013-08-30 18:16:00,88.5,65.1,29.82,South,180,0.0,6.3,46,0.00,,---,0.00,VWS V13.01,2013-08-30 22:16:00,
2013-08-30 18:21:00,88.5,65.1,29.82,SSE,158,0.0,6.3,46,0.00,,---,0.00,VWS V13.01,2013-08-30 22:21:00,
2013-08-30 18:26:00,88.7,66.5,29.82,South,180,0.0,6.3,48,0.00,,---,0.00,VWS V13.01,2013-08-30 22:26:00,
2013-08-30 18:31:00,88.7,66.5,29.82,SE,135,0.0,6.3,48,0.00,,---,0.00,VWS V13.01,2013-08-30 22:31:00,
2013-08-30 18:36:00,88.7,65.9,29.82,SSE,158,0.0,6.3,47,0.00,,---,0.00,VWS V13.01,2013-08-30 22:36:00,
2013-08-30 18:41:00,88.7,65.9,29.81,SE,135,5.6,6.3,47,0.00,,---,0.00,VWS V13.01,2013-08-30 22:41:00,
2013-08-30 18:46:00,88.7,65.9,29.81,South,180,0.0,6.3,47,0.00,,---,0.00,VWS V13.01,2013-08-30 22:46:00,
2013-08-30 18:51:00,88.7,65.9,29.81,SE,135,0.0,6.3,47,0.00,,---,0.00,VWS V13.01,2013-08-30 22:51:00,
2013-08-30 18:56:00,88.5,65.7,29.81,SE,135,0.0,6.3,47,0.00,,---,0.00,VWS V13.01,2013-08-30 22:56:00,
2013-08-30 19:01:00,88.2,65.4,29.81,SSE,158,0.0,0.0,47,0.00,,---,0.00,VWS V13.01,2013-08-30 23:01:00,
2013-08-30 19:06:00,88.2,65.4,29.81,SSE,158,0.0,0.0,47,0.00,,---,0.00,VWS V13.01,2013-08-30 23:06:00,
2013-08-30 19:11:00,88.0,67.0,29.82,SSE,158,0.0,2.5,50,0.00,,---,0.00,VWS V13.01,2013-08-30 23:11:00,
2013-08-30 19:16:00,87.6,67.3,29.82,SSE,158,0.0,2.5,51,0.00,,---,0.00,VWS V13.01,2013-08-30 23:16:00,
2013-08-30 19:21:00,87.4,67.7,29.82,SSE,158,0.0,2.5,52,0.00,,---,0.00,VWS V13.01,2013-08-30 23:21:00,
2013-08-30 19:26:00,87.3,67.5,29.82,SSE,158,0.0,2.5,52,0.00,,---,0.00,VWS V13.01,2013-08-30 23:26:00,
2013-08-30 19:31:00,86.9,67.7,29.82,SSE,158,2.9,3.4,53,0.00,,---,0.00,VWS V13.01,2013-08-30 23:31:00,
2013-08-30 19:36:00,86.9,68.8,29.82,SSE,158,0.0,3.6,55,0.00,,---,0.00,VWS V13.01,2013-08-30 23:36:00,
2013-08-30 19:41:00,86.5,68.5,29.83,SSE,158,0.0,3.6,55,0.00,,---,0.00,VWS V13.01,2013-08-30 23:41:00,
2013-08-30 19:46:00,86.4,68.3,29.83,South,180,0.0,3.6,55,0.00,,---,0.00,VWS V13.01,2013-08-30 23:46:00,
2013-08-30 19:51:00,86.4,68.3,29.83,SSE,158,1.8,3.6,55,0.00,,---,0.00,VWS V13.01,2013-08-30 23:51:00,
2013-08-30 19:56:00,86.4,68.3,29.83,SSE,158,0.0,3.6,55,0.00,,---,0.00,VWS V13.01,2013-08-30 23:56:00,
2013-08-30 20:01:00,86.2,68.1,29.84,SE,135,0.0,0.0,55,0.00,,---,0.00,VWS V13.01,2013-08-31 00:01:00,
2013-08-30 20:06:00,86.2,68.1,29.83,South,180,0.0,2.7,55,0.00,,---,0.00,VWS V13.01,2013-08-31 00:06:00,
2013-08-30 20:11:00,86.0,68.0,29.83,SSE,158,0.0,2.7,55,0.00,,---,0.00,VWS V13.01,2013-08-31 00:11:00,
2013-08-30 20:16:00,85.8,67.8,29.83,South,180,0.0,2.7,55,0.00,,---,0.00,VWS V13.01,2013-08-31 00:16:00,
2013-08-30 20:21:00,85.8,67.8,29.83,East,90,0.0,2.7,55,0.00,,---,0.00,VWS V13.01,2013-08-31 00:21:00,
2013-08-30 20:26:00,85.6,67.6,29.83,South,180,0.0,2.7,55,0.00,,---,0.00,VWS V13.01,2013-08-31 00:26:00,
2013-08-30 20:31:00,85.6,67.6,29.84,SSE,158,0.0,2.7,55,0.00,,---,0.00,VWS V13.01,2013-08-31 00:31:00,
2013-08-30 20:36:00,85.6,67.6,29.84,SSE,158,0.0,2.7,55,0.00,,---,0.00,VWS V13.01,2013-08-31 00:36:00,
2013-08-30 20:40:00,85.6,67.6,29.84,SSE,158,0.0,2.7,55,0.00,,---,0.00,VWS V13.01,2013-08-31 00:40:00,
2013-08-30 20:45:00,85.5,69.5,29.84,SSE,158,0.0,2.7,59,0.00,,---,0.00,VWS V13.01,2013-08-31 00:45:00,
2013-08-30 20:50:00,85.6,69.7,29.83,SSE,158,0.0,2.7,59,0.00,,---,0.00,VWS V13.01,2013-08-31 00:50:00,
2013-08-30 20:55:00,85.3,69.3,29.83,South,180,0.0,2.7,59,0.00,,---,0.00,VWS V13.01,2013-08-31 00:55:00,
2013-08-30 21:00:00,85.5,69.5,29.84,South,180,0.0,0.0,59,0.00,,---,0.00,VWS V13.01,2013-08-31 01:00:00,
2013-08-30 21:05:00,85.1,69.2,29.84,South,180,0.0,0.0,59,0.00,,---,0.00,VWS V13.01,2013-08-31 01:05:00,
2013-08-30 21:10:00,85.1,69.2,29.84,South,180,0.0,0.0,59,0.00,,---,0.00,VWS V13.01,2013-08-31 01:10:00,
2013-08-30 21:15:00,85.1,69.2,29.84,South,180,0.0,0.0,59,0.00,,---,0.00,VWS V13.01,2013-08-31 01:15:00,
2013-08-30 21:20:00,85.3,69.3,29.84,South,180,0.0,0.0,59,0.00,,---,0.00,VWS V13.01,2013-08-31 01:20:00,
2013-08-30 21:25:00,85.1,69.2,29.84,South,180,0.0,0.0,59,0.00,,---,0.00,VWS V13.01,2013-08-31 01:25:00,
2013-08-30 21:30:00,84.9,69.0,29.85,South,180,0.0,1.8,59,0.00,,---,0.00,VWS V13.01,2013-08-31 01:30:00,
2013-08-30 21:35:00,84.9,69.0,29.85,South,180,0.0,1.8,59,0.00,,---,0.00,VWS V13.01,2013-08-31 01:35:00,
2013-08-30 21:40:00,84.9,69.0,29.85,SSE,158,0.0,1.8,59,0.00,,---,0.00,VWS V13.01,2013-08-31 01:40:00,
2013-08-30 21:45:00,84.9,69.0,29.85,SSE,158,0.0,1.8,59,0.00,,---,0.00,VWS V13.01,2013-08-31 01:45:00,
2013-08-30 21:50:00,84.7,68.8,29.85,SSE,158,0.0,1.8,59,0.00,,---,0.00,VWS V13.01,2013-08-31 01:50:00,
2013-08-30 21:55:00,84.7,67.8,29.85,SSE,158,0.0,1.8,57,0.00,,---,0.00,VWS V13.01,2013-08-31 01:55:00,
2013-08-30 22:00:00,84.6,67.7,29.85,South,180,0.0,0.0,57,0.00,,---,0.00,VWS V13.01,2013-08-31 02:00:00,
2013-08-30 22:05:00,84.7,67.8,29.86,SW,225,0.0,2.5,57,0.00,,---,0.00,VWS V13.01,2013-08-31 02:05:00,
2013-08-30 22:10:00,84.7,67.3,29.86,South,180,0.0,2.5,56,0.00,,---,0.00,VWS V13.01,2013-08-31 02:10:00,
2013-08-30 22:15:00,84.7,67.3,29.86,South,180,0.0,2.5,56,0.00,,---,0.00,VWS V13.01,2013-08-31 02:15:00,
2013-08-30 22:20:00,84.7,67.3,29.86,SE,135,0.0,2.5,56,0.00,,---,0.00,VWS V13.01,2013-08-31 02:20:00,
2013-08-30 22:25:00,84.6,67.2,29.86,SSE,158,0.0,2.5,56,0.00,,---,0.00,VWS V13.01,2013-08-31 02:25:00,
2013-08-30 22:30:00,84.4,67.0,29.86,SSE,158,0.0,2.5,56,0.00,,---,0.00,VWS V13.01,2013-08-31 02:30:00,
2013-08-30 22:35:00,84.6,67.2,29.86,SSE,158,0.0,2.5,56,0.00,,---,0.00,VWS V13.01,2013-08-31 02:35:00,
2013-08-30 22:40:00,84.4,67.0,29.86,SSE,158,0.0,2.5,56,0.00,,---,0.00,VWS V13.01,2013-08-31 02:40:00,
2013-08-30 22:45:00,84.4,67.5,29.86,South,180,0.0,2.5,57,0.00,,---,0.00,VWS V13.01,2013-08-31 02:45:00,
2013-08-30 22:50:00,84.0,67.2,29.86,SW,225,0.0,3.8,57,0.00,,---,0.00,VWS V13.01,2013-08-31 02:50:00,
2013-08-30 22:55:00,84.4,67.5,29.86,SW,225,0.0,3.8,57,0.00,,---,0.00,VWS V13.01,2013-08-31 02:55:00,
2013-08-30 23:00:00,84.2,67.3,29.86,SW,225,0.0,0.0,57,0.00,,---,0.00,VWS V13.01,2013-08-31 03:00:00,
2013-08-30 23:05:00,84.2,67.3,29.86,South,180,0.0,4.9,57,0.00,,---,0.00,VWS V13.01,2013-08-31 03:05:00,
2013-08-30 23:10:00,84.2,67.3,29.86,SSW,202,0.0,4.9,57,0.00,,---,0.00,VWS V13.01,2013-08-31 03:10:00,
2013-08-30 23:15:00,84.2,67.8,29.87,SSW,202,0.0,4.9,58,0.00,,---,0.00,VWS V13.01,2013-08-31 03:15:00,
2013-08-30 23:20:00,84.0,67.7,29.87,SSW,202,0.0,4.9,58,0.00,,---,0.00,VWS V13.01,2013-08-31 03:20:00,
2013-08-30 23:25:00,84.0,67.7,29.87,SSE,158,0.0,4.9,58,0.00,,---,0.00,VWS V13.01,2013-08-31 03:25:00,
2013-08-30 23:30:00,84.0,67.7,29.87,WNW,292,0.0,4.9,58,0.00,,---,0.00,VWS V13.01,2013-08-31 03:30:00,
2013-08-30 23:35:00,83.8,67.5,29.87,South,180,0.0,4.9,58,0.00,,---,0.00,VWS V13.01,2013-08-31 03:35:00,
2013-08-30 23:40:00,83.8,67.5,29.87,South,180,0.0,4.9,58,0.00,,---,0.00,VWS V13.01,2013-08-31 03:40:00,
2013-08-30 23:45:00,83.8,68.0,29.87,SSW,202,0.0,4.9,59,0.00,,---,0.00,VWS V13.01,2013-08-31 03:45:00,
2013-08-30 23:50:00,83.8,68.0,29.87,SSW,202,0.0,4.9,59,0.00,,---,0.00,VWS V13.01,2013-08-31 03:50:00,
2013-08-30 23:55:00,83.8,68.0,29.87,SSE,158,0.0,4.9,59,0.00,,---,0.00,VWS V13.01,2013-08-31 03:55:00,